Flag for U.S.A. Weather past 2 weeks in Louisville, Kentucky, U.S.A.

Now
66 °F

Passing clouds.


Feels Like: 66 °F
Forecast: 62 / 84 °F
Wind: 5 mph from Southeast

Location: Standiford Field

Current Time: Oct 2, 2014 at 3:21:14 AM

Latest Report: Oct 2, 2014 at 2:56 AM


Visibility: 10 mi

Pressure: 29.96 "Hg

Humidity: 75%

Dew point: 58 °F

Location of LouisvilleLocation

Historic Weather in Louisville — Graph

°F

Louisville temperature yesterday

Maximum temperature yesterday: 86 °F (at 4:56 PM)
Minimum temperature yesterday: 58 °F (at 7:56 AM)
Average temperature yesterday: 70 °F

Past Weeks' High & Low Weather Summary

 TemperatureHumidityPressure
High86 °F (Sep 29, 3:56 PM)93% (Sep 17, 3:56 AM)30.34 "Hg (Sep 17, 3:56 AM)
Low50 °F (Sep 23, 6:56 AM)31% (Sep 21, 3:56 PM)29.85 "Hg (Sep 21, 5:56 AM)
Average69 °F62%30.09 "Hg
* Reported Sep 17 1:56 AM — Oct 2 1:56 AM, Louisville, Weather by CustomWeather, © 2014

Note: Actual official high and low records may vary slightly from our data, if they occured in-between our weather recording intervals... More about our weather records

Advertising

Louisville weather history for previous 24 hours

 ConditionsComfort  
Time TempWeatherWind HumidityBarometerVisibility
1:56 AM
Oct 2
67 °FPassing clouds.6 mph73%29.96 "Hg10 mi
12:56 AM68 °FPassing clouds.3 mph70%29.96 "Hg10 mi
11:56 PM
Oct 1
70 °FClear.6 mph66%29.96 "Hg10 mi
10:56 PM71 °FClear.3 mph61%29.96 "Hg10 mi
9:56 PM73 °FClear.6 mph57%29.96 "Hg10 mi
8:56 PM74 °FPassing clouds.7 mph53%29.94 "Hg10 mi
7:56 PM79 °FPassing clouds.5 mph44%29.93 "Hg10 mi
6:56 PM81 °FPassing clouds.5 mph41%29.92 "Hg10 mi
5:56 PM84 °FPassing clouds.3 mph37%29.92 "Hg10 mi
4:56 PM86 °FPassing clouds.No wind33%29.92 "Hg10 mi
3:56 PM83 °FPassing clouds.6 mph41%29.94 "Hg10 mi
2:56 PM83 °FPassing clouds.3 mph44%29.95 "Hg10 mi
1:56 PM79 °FPassing clouds.No wind52%29.97 "Hg10 mi
12:56 PM75 °FSunny.No wind60%29.98 "Hg10 mi
11:56 AM71 °FPassing clouds.3 mph66%30.00 "Hg10 mi
10:56 AM67 °FPassing clouds.5 mph73%30.00 "Hg10 mi
9:56 AM62 °FSunny.No wind80%30.01 "Hg10 mi
8:56 AM60 °FPassing clouds.3 mph83%29.99 "Hg9 mi
7:56 AM58 °FPassing clouds.3 mph87%29.98 "Hg10 mi
6:56 AM59 °FPassing clouds.3 mph84%29.96 "Hg10 mi
5:56 AM59 °FPassing clouds.6 mph87%29.95 "Hg10 mi
4:56 AM61 °FPassing clouds.6 mph83%29.95 "Hg10 mi
3:56 AM62 °FPassing clouds.6 mph83%29.96 "Hg10 mi
Weather by CustomWeather, © 2014

See weather overviewHow to use our weather pages